DAH2206 LEMD-DAAG

Flight info

Callsign DAH2206
Flight time 1h 10m
Altitude 36000
Route NANDO M871 MINGU/N0455F370 DCT ABOSI DCT MABUX DCT RETBA DCT SERRA DCT ALT L150 LABRO UA31 ALR
Aircraft B738/M-SDE2E3FGHIRWXY/LB1

Departure

Time 2026-05-06 12:13
Airport Adolfo Suárez Madrid–Barajas Airport (LEMD)

Arrival

Time 2026-05-06 13:23
Airport Houari Boumediene Airport (DAAG)
Time Latitude Longitude Altitude Speed Heading
2026-05-06 12:12 40.49195 -3.57562 1988 ft 4 kts 64°
2026-05-06 12:12 40.49207 -3.57527 1986 ft 8 kts 65°
2026-05-06 12:12 40.49235 -3.57463 1983 ft 6 kts 39°
2026-05-06 12:12 40.49313 -3.57452 1982 ft 36 kts 359°
2026-05-06 12:13 40.49876 -3.57456 1988 ft 123 kts 360°
2026-05-06 12:13 40.50951 -3.57460 2259 ft 171 kts
2026-05-06 12:13 40.52220 -3.57468 3025 ft 199 kts 359°
2026-05-06 12:13 40.53734 -3.57526 3421 ft 237 kts 359°
2026-05-06 12:14 40.55477 -3.57466 3985 ft 256 kts 12°
2026-05-06 12:14 40.57132 -3.56802 5188 ft 241 kts 18°
2026-05-06 12:14 40.58716 -3.56158 6239 ft 238 kts 17°
2026-05-06 12:14 40.60311 -3.55540 7123 ft 240 kts 16°
2026-05-06 12:15 40.61932 -3.54922 7945 ft 245 kts 15°
2026-05-06 12:15 40.63581 -3.54298 8754 ft 248 kts 14°
2026-05-06 12:15 40.65305 -3.53956 9524 ft 253 kts
2026-05-06 12:15 40.67078 -3.53838 10297 ft 257 kts
2026-05-06 12:16 40.68864 -3.53724 11124 ft 258 kts
2026-05-06 12:16 40.70566 -3.53002 11843 ft 264 kts 36°
2026-05-06 12:16 40.71812 -3.51123 12265 ft 282 kts 57°
2026-05-06 12:16 40.72893 -3.48913 12880 ft 291 kts 56°
2026-05-06 12:17 40.74019 -3.46671 13607 ft 296 kts 55°
2026-05-06 12:17 40.75179 -3.44405 14325 ft 300 kts 54°
2026-05-06 12:17 40.76240 -3.42018 15017 ft 307 kts 71°
2026-05-06 12:17 40.76392 -3.39207 15660 ft 313 kts 103°
2026-05-06 12:18 40.75618 -3.36526 16372 ft 316 kts 117°
2026-05-06 12:18 40.74434 -3.34068 16970 ft 321 kts 129°
2026-05-06 12:18 40.73046 -3.31743 17623 ft 325 kts 130°
2026-05-06 12:18 40.71638 -3.29388 18299 ft 329 kts 130°
2026-05-06 12:19 40.70061 -3.27203 18879 ft 331 kts 149°
2026-05-06 12:19 40.67979 -3.25810 19109 ft 345 kts 161°
2026-05-06 12:19 40.65686 -3.24610 19268 ft 364 kts 162°
2026-05-06 12:19 40.63260 -3.23386 19407 ft 383 kts 162°
2026-05-06 12:20 40.60713 -3.22092 19538 ft 401 kts 162°
2026-05-06 12:20 40.58074 -3.20730 19887 ft 411 kts 161°
2026-05-06 12:20 40.55410 -3.19335 20490 ft 413 kts 161°
2026-05-06 12:20 40.52735 -3.17924 21107 ft 415 kts 161°
2026-05-06 12:21 40.50042 -3.16502 21659 ft 418 kts 162°
2026-05-06 12:21 40.47329 -3.15071 22161 ft 422 kts 162°
2026-05-06 12:21 40.44592 -3.13631 22685 ft 425 kts 162°
2026-05-06 12:21 40.41840 -3.12184 23185 ft 428 kts 162°
2026-05-06 12:22 40.39182 -3.10353 23608 ft 440 kts 146°
2026-05-06 12:22 40.36847 -3.07717 24109 ft 444 kts 142°
2026-05-06 12:22 40.34550 -3.04996 24545 ft 447 kts 141°
2026-05-06 12:22 40.32228 -3.02259 24967 ft 450 kts 142°
2026-05-06 12:23 40.30339 -3.00062 25297 ft 453 kts 143°
2026-05-06 12:23 40.27940 -2.97305 25700 ft 455 kts 143°
2026-05-06 12:23 40.25542 -2.94573 26119 ft 458 kts 143°
2026-05-06 12:23 40.23130 -2.91838 26540 ft 460 kts 144°
2026-05-06 12:24 40.20711 -2.89100 26917 ft 462 kts 144°
2026-05-06 12:24 40.18798 -2.86935 27186 ft 465 kts 144°
2026-05-06 12:24 40.16351 -2.84166 27540 ft 467 kts 144°
2026-05-06 12:24 40.14022 -2.81166 27857 ft 478 kts 132°
2026-05-06 12:25 40.12389 -2.77334 28189 ft 491 kts 113°
2026-05-06 12:25 40.11385 -2.73052 28582 ft 494 kts 109°
2026-05-06 12:25 40.10455 -2.68708 28853 ft 498 kts 109°
2026-05-06 12:25 40.09526 -2.64333 29102 ft 502 kts 109°
2026-05-06 12:26 40.08576 -2.59935 29387 ft 504 kts 110°
2026-05-06 12:26 40.07601 -2.55524 29639 ft 507 kts 110°
2026-05-06 12:26 40.06606 -2.51109 29945 ft 508 kts 110°
2026-05-06 12:26 40.05600 -2.46689 30338 ft 507 kts 111°
2026-05-06 12:27 40.04595 -2.42292 30770 ft 505 kts 111°
2026-05-06 12:27 40.03590 -2.37905 31142 ft 504 kts 111°
2026-05-06 12:27 40.02584 -2.33523 31453 ft 505 kts 111°
2026-05-06 12:27 40.01590 -2.29191 31771 ft 505 kts 111°
2026-05-06 12:28 40.00584 -2.24812 32167 ft 503 kts 111°
2026-05-06 12:28 39.99580 -2.20448 32561 ft 501 kts 111°
2026-05-06 12:28 39.98562 -2.16035 32902 ft 501 kts 112°
2026-05-06 12:28 39.97566 -2.11740 33136 ft 502 kts 112°
2026-05-06 12:29 39.96553 -2.07384 33416 ft 503 kts 112°
2026-05-06 12:29 39.95539 -2.03029 33761 ft 501 kts 112°
2026-05-06 12:29 39.94529 -1.98693 34109 ft 500 kts 112°
2026-05-06 12:29 39.93518 -1.94360 34391 ft 500 kts 112°
2026-05-06 12:30 39.92504 -1.90025 34662 ft 500 kts 112°
2026-05-06 12:30 39.91490 -1.85703 34945 ft 499 kts 112°
2026-05-06 12:30 39.90476 -1.81384 35237 ft 498 kts 112°
2026-05-06 12:30 39.89462 -1.77070 35490 ft 498 kts 112°
2026-05-06 12:31 39.88446 -1.72760 35709 ft 499 kts 112°
2026-05-06 12:31 39.87426 -1.68444 35937 ft 499 kts 112°
2026-05-06 12:31 39.85362 -1.59730 35983 ft 505 kts 112°
2026-05-06 12:32 39.83296 -1.51021 35968 ft 501 kts 112°
2026-05-06 12:32 39.81241 -1.42408 35971 ft 498 kts 112°
2026-05-06 12:33 39.79118 -1.33851 35969 ft 493 kts 119°
2026-05-06 12:33 39.77385 -1.30107 36000 ft 476 kts 137°
2026-05-06 12:33 39.75051 -1.27159 36124 ft 464 kts 150°
2026-05-06 12:34 39.72333 -1.25005 36238 ft 452 kts 163°
2026-05-06 12:34 39.69452 -1.23378 36403 ft 452 kts 165°
2026-05-06 12:34 39.66595 -1.21804 36596 ft 453 kts 164°
2026-05-06 12:34 39.63671 -1.20146 36874 ft 452 kts 163°
2026-05-06 12:35 39.60852 -1.18501 37253 ft 448 kts 163°
2026-05-06 12:35 39.58044 -1.16766 37623 ft 449 kts 157°
2026-05-06 12:35 39.55474 -1.14386 37885 ft 460 kts 144°
2026-05-06 12:35 39.53266 -1.11323 37952 ft 473 kts 133°
2026-05-06 12:36 39.49933 -1.03794 37958 ft 486 kts 123°
2026-05-06 12:36 39.46690 -0.96158 37959 ft 480 kts 129°
2026-05-06 12:37 39.44569 -0.92942 37964 ft 462 kts 147°
2026-05-06 12:37 39.41970 -0.90641 37966 ft 447 kts 160°
2026-05-06 12:37 39.39134 -0.89186 37963 ft 432 kts 174°
2026-05-06 12:37 39.36210 -0.88373 37974 ft 428 kts 176°
2026-05-06 12:38 39.30368 -0.86803 37959 ft 430 kts 175°
2026-05-06 12:38 39.24527 -0.85103 37965 ft 431 kts 174°
2026-05-06 12:39 39.18677 -0.83394 37968 ft 432 kts 175°
2026-05-06 12:39 39.12803 -0.81688 37964 ft 433 kts 175°
2026-05-06 12:40 39.06911 -0.79979 37970 ft 434 kts 175°
2026-05-06 12:40 39.01006 -0.78267 37968 ft 436 kts 175°
2026-05-06 12:41 38.95079 -0.76551 37965 ft 437 kts 175°
2026-05-06 12:41 38.89147 -0.74835 37961 ft 437 kts 175°
2026-05-06 12:42 38.83215 -0.73124 37957 ft 437 kts 175°
2026-05-06 12:42 38.77274 -0.71416 37940 ft 437 kts 175°
2026-05-06 12:43 38.71344 -0.69711 37941 ft 437 kts 175°
2026-05-06 12:43 38.65417 -0.68010 37941 ft 436 kts 175°
2026-05-06 12:44 38.59542 -0.66327 37946 ft 435 kts 175°
2026-05-06 12:44 38.53649 -0.64641 37938 ft 434 kts 175°
2026-05-06 12:45 38.47792 -0.62970 37949 ft 432 kts 175°
2026-05-06 12:46 38.38986 -0.60463 37944 ft 432 kts 175°
2026-05-06 12:46 38.33120 -0.58793 37955 ft 432 kts 175°
2026-05-06 12:47 38.27424 -0.56223 37941 ft 452 kts 154°
2026-05-06 12:47 38.24923 -0.53726 37934 ft 465 kts 141°
2026-05-06 12:47 38.22848 -0.50510 37953 ft 474 kts 133°
2026-05-06 12:48 38.19041 -0.43653 37936 ft 475 kts 132°
2026-05-06 12:48 38.15205 -0.36810 37934 ft 475 kts 133°
2026-05-06 12:48 38.13267 -0.33426 37728 ft 471 kts 133°
2026-05-06 12:49 38.11350 -0.30100 37447 ft 462 kts 133°
2026-05-06 12:49 38.09461 -0.26829 37196 ft 455 kts 133°
2026-05-06 12:49 38.07596 -0.23606 36949 ft 453 kts 133°
2026-05-06 12:49 38.05733 -0.20382 36710 ft 453 kts 133°
2026-05-06 12:50 38.03875 -0.17148 36467 ft 453 kts 133°
2026-05-06 12:50 38.02021 -0.13919 36221 ft 453 kts 133°
2026-05-06 12:50 38.00165 -0.10690 35971 ft 453 kts 133°
2026-05-06 12:50 37.98294 -0.07467 35720 ft 454 kts 134°
2026-05-06 12:51 37.96396 -0.04242 35483 ft 460 kts 134°
2026-05-06 12:51 37.94463 -0.00965 35250 ft 467 kts 134°
2026-05-06 12:51 37.92528 0.02341 35001 ft 467 kts 134°
2026-05-06 12:51 37.90610 0.05643 34748 ft 465 kts 133°
2026-05-06 12:52 37.88700 0.08932 34497 ft 463 kts 133°
2026-05-06 12:52 37.86798 0.12206 34248 ft 462 kts 133°
2026-05-06 12:52 37.84917 0.15437 34002 ft 461 kts 133°
2026-05-06 12:52 37.82993 0.18733 33740 ft 460 kts 133°
2026-05-06 12:53 37.81115 0.21944 33504 ft 460 kts 134°
2026-05-06 12:53 37.79210 0.25196 33261 ft 461 kts 134°
2026-05-06 12:53 37.77298 0.28457 33015 ft 462 kts 134°
2026-05-06 12:53 37.75384 0.31718 32770 ft 463 kts 133°
2026-05-06 12:54 37.73457 0.34999 32522 ft 465 kts 134°
2026-05-06 12:54 37.71525 0.38287 32278 ft 467 kts 133°
2026-05-06 12:54 37.69586 0.41586 32034 ft 469 kts 134°
2026-05-06 12:54 37.67638 0.44895 31797 ft 471 kts 133°
2026-05-06 12:55 37.65680 0.48220 31543 ft 472 kts 133°
2026-05-06 12:55 37.63717 0.51549 31293 ft 473 kts 133°
2026-05-06 12:55 37.61745 0.54887 31048 ft 474 kts 133°
2026-05-06 12:55 37.59780 0.58213 30806 ft 474 kts 133°
2026-05-06 12:56 37.57812 0.61543 30552 ft 474 kts 133°
2026-05-06 12:56 37.55839 0.64877 30304 ft 474 kts 133°
2026-05-06 12:56 37.53882 0.68181 30058 ft 473 kts 133°
2026-05-06 12:56 37.51911 0.71503 29808 ft 473 kts 133°
2026-05-06 12:57 37.49944 0.74815 29560 ft 472 kts 133°
2026-05-06 12:57 37.47978 0.78123 29310 ft 471 kts 133°
2026-05-06 12:57 37.46012 0.81425 29063 ft 471 kts 133°
2026-05-06 12:57 37.44050 0.84719 28817 ft 471 kts 133°
2026-05-06 12:58 37.42088 0.88010 28569 ft 470 kts 133°
2026-05-06 12:58 37.40122 0.91306 28321 ft 470 kts 133°
2026-05-06 12:58 37.38159 0.94593 28071 ft 470 kts 132°
2026-05-06 12:58 37.36191 0.97885 27823 ft 470 kts 132°
2026-05-06 12:59 37.34890 1.00061 27661 ft 471 kts 132°
2026-05-06 12:59 37.32920 1.03353 27412 ft 472 kts 132°
2026-05-06 12:59 37.30948 1.06648 27169 ft 472 kts 132°
2026-05-06 12:59 37.28975 1.09939 26987 ft 473 kts 132°
2026-05-06 13:00 37.26982 1.13254 26943 ft 475 kts 133°
2026-05-06 13:00 37.24922 1.16478 26941 ft 473 kts 135°
2026-05-06 13:00 37.22798 1.19633 26936 ft 472 kts 136°
2026-05-06 13:00 37.20661 1.22757 26931 ft 472 kts 136°
2026-05-06 13:01 37.18522 1.25886 26931 ft 472 kts 136°
2026-05-06 13:01 37.16409 1.29004 26606 ft 467 kts 135°
2026-05-06 13:01 37.14340 1.32082 26124 ft 459 kts 135°
2026-05-06 13:01 37.12293 1.35134 25582 ft 454 kts 135°
2026-05-06 13:02 37.10271 1.38150 25037 ft 449 kts 135°
2026-05-06 13:02 37.08271 1.41129 24486 ft 445 kts 135°
2026-05-06 13:02 37.06286 1.44081 23938 ft 441 kts 135°
2026-05-06 13:02 37.04325 1.46996 23397 ft 437 kts 135°
2026-05-06 13:03 37.02376 1.49891 22853 ft 433 kts 134°
2026-05-06 13:03 37.00504 1.52823 22313 ft 430 kts 132°
2026-05-06 13:03 36.98700 1.55797 21778 ft 427 kts 131°
2026-05-06 13:03 36.96933 1.58764 21242 ft 423 kts 131°
2026-05-06 13:04 36.95185 1.61705 20705 ft 420 kts 130°
2026-05-06 13:04 36.93447 1.64615 20175 ft 416 kts 131°
2026-05-06 13:04 36.91713 1.67503 19641 ft 412 kts 131°
2026-05-06 13:04 36.89995 1.70346 19117 ft 409 kts 131°
2026-05-06 13:05 36.88284 1.73170 18591 ft 406 kts 130°
2026-05-06 13:05 36.86584 1.75971 18071 ft 403 kts 130°
2026-05-06 13:05 36.84900 1.78741 17553 ft 399 kts 130°
2026-05-06 13:05 36.83226 1.81494 17038 ft 396 kts 130°
2026-05-06 13:06 36.81565 1.84223 16527 ft 394 kts 130°
2026-05-06 13:06 36.79913 1.86935 16017 ft 391 kts 130°
2026-05-06 13:06 36.78299 1.89585 15516 ft 388 kts 130°
2026-05-06 13:06 36.76655 1.92280 15009 ft 384 kts 130°
2026-05-06 13:07 36.75061 1.94891 14516 ft 381 kts 130°
2026-05-06 13:07 36.73460 1.97510 14022 ft 378 kts 130°
2026-05-06 13:07 36.71873 2.00105 13532 ft 376 kts 130°
2026-05-06 13:07 36.70292 2.02690 13023 ft 373 kts 130°
2026-05-06 13:08 36.68724 2.05250 12548 ft 370 kts 130°
2026-05-06 13:08 36.67168 2.07788 12056 ft 368 kts 130°
2026-05-06 13:08 36.65621 2.10311 11568 ft 365 kts 130°
2026-05-06 13:08 36.64085 2.12815 11082 ft 362 kts 129°
2026-05-06 13:09 36.62567 2.15287 10817 ft 353 kts 129°
2026-05-06 13:09 36.61179 2.17749 10642 ft 346 kts 118°
2026-05-06 13:09 36.60534 2.20577 10527 ft 337 kts 96°
2026-05-06 13:09 36.60612 2.23453 10388 ft 328 kts 82°
2026-05-06 13:10 36.60900 2.26220 10244 ft 318 kts 89°
2026-05-06 13:10 36.60642 2.28903 10132 ft 307 kts 102°
2026-05-06 13:10 36.60228 2.31470 10006 ft 299 kts 102°
2026-05-06 13:10 36.59831 2.33983 9839 ft 293 kts 102°
2026-05-06 13:11 36.59438 2.36463 9595 ft 290 kts 102°
2026-05-06 13:11 36.59046 2.38919 9344 ft 287 kts 102°
2026-05-06 13:11 36.58656 2.41343 9100 ft 284 kts 102°
2026-05-06 13:11 36.58265 2.43736 8871 ft 278 kts 102°
2026-05-06 13:12 36.57967 2.46105 8621 ft 278 kts 87°
2026-05-06 13:12 36.58580 2.48330 8393 ft 273 kts 52°
2026-05-06 13:12 36.59914 2.49988 8157 ft 270 kts 42°
2026-05-06 13:12 36.61284 2.51570 7884 ft 269 kts 44°
2026-05-06 13:13 36.62538 2.53287 7647 ft 266 kts 52°
2026-05-06 13:13 36.63573 2.55187 7394 ft 265 kts 60°
2026-05-06 13:13 36.64407 2.57218 7139 ft 262 kts 66°
2026-05-06 13:13 36.65086 2.59315 6895 ft 260 kts 70°
2026-05-06 13:14 36.65656 2.61445 6637 ft 259 kts 73°
2026-05-06 13:14 36.66154 2.63594 6385 ft 258 kts 75°
2026-05-06 13:14 36.66606 2.65751 6131 ft 257 kts 76°
2026-05-06 13:14 36.67027 2.67902 5884 ft 255 kts 76°
2026-05-06 13:15 36.67427 2.70047 5636 ft 253 kts 77°
2026-05-06 13:15 36.67811 2.72153 5520 ft 245 kts 77°
2026-05-06 13:15 36.68172 2.74184 5394 ft 238 kts 77°
2026-05-06 13:15 36.68517 2.76137 5309 ft 230 kts 77°
2026-05-06 13:16 36.68852 2.78054 5206 ft 223 kts 77°
2026-05-06 13:16 36.69174 2.79902 5106 ft 215 kts 77°
2026-05-06 13:16 36.69484 2.81694 4987 ft 209 kts 78°
2026-05-06 13:16 36.69787 2.83448 4819 ft 206 kts 78°
2026-05-06 13:17 36.69985 2.85196 4614 ft 201 kts 90°
2026-05-06 13:17 36.69945 2.86914 4429 ft 196 kts 92°
2026-05-06 13:17 36.69891 2.88581 4263 ft 188 kts 92°
2026-05-06 13:17 36.69845 2.90181 4090 ft 180 kts 91°
2026-05-06 13:18 36.69798 2.91704 3899 ft 172 kts 91°
2026-05-06 13:18 36.69762 2.93174 3720 ft 168 kts 91°
2026-05-06 13:18 36.69726 2.94631 3575 ft 169 kts 91°
2026-05-06 13:18 36.69689 2.96105 3378 ft 171 kts 91°
2026-05-06 13:19 36.69656 2.97566 3145 ft 165 kts 91°
2026-05-06 13:19 36.69624 2.98951 2926 ft 156 kts 91°
2026-05-06 13:19 36.69593 3.00273 2736 ft 151 kts 91°
2026-05-06 13:19 36.69564 3.01530 2588 ft 144 kts 91°
2026-05-06 13:20 36.69535 3.02790 2360 ft 144 kts 91°
2026-05-06 13:20 36.69507 3.04020 2162 ft 140 kts 91°
2026-05-06 13:20 36.69480 3.05219 1980 ft 138 kts 91°
2026-05-06 13:20 36.69452 3.06428 1802 ft 141 kts 89°
2026-05-06 13:21 36.69423 3.07656 1615 ft 142 kts 89°
2026-05-06 13:21 36.69396 3.08871 1420 ft 140 kts 88°
2026-05-06 13:21 36.69370 3.10084 1242 ft 140 kts 89°
2026-05-06 13:21 36.69341 3.11300 1059 ft 140 kts 90°
2026-05-06 13:22 36.69313 3.12486 861 ft 138 kts 89°
2026-05-06 13:22 36.69285 3.13678 682 ft 138 kts 89°
2026-05-06 13:22 36.69258 3.14878 511 ft 140 kts 89°
2026-05-06 13:22 36.69231 3.16104 332 ft 141 kts 90°
2026-05-06 13:23 36.69200 3.17320 133 ft 138 kts 90°
2026-05-06 13:23 36.69179 3.18499 74 ft 133 kts 91°
2026-05-06 13:23 36.69153 3.19316 71 ft 47 kts 92°
2026-05-06 13:23 36.69154 3.19681 68 ft 28 kts 82°
2026-05-06 13:24 36.69179 3.19804 67 ft 9 kts 70°
2026-05-06 13:24 36.69203 3.19873 68 ft 7 kts 63°
2026-05-06 13:24 36.69227 3.19929 69 ft 8 kts 62°
2026-05-06 13:24 36.69251 3.19987 63 ft 8 kts 63°
2026-05-06 13:25 36.69275 3.20047 66 ft 8 kts 67°
2026-05-06 13:25 36.69291 3.20112 60 ft 8 kts 77°
2026-05-06 13:25 36.69298 3.20181 70 ft 8 kts 85°
2026-05-06 13:25 36.69299 3.20265 65 ft 10 kts 91°
2026-05-06 13:26 36.69296 3.20354 65 ft 10 kts 92°
2026-05-06 13:26 36.69294 3.20447 66 ft 12 kts 91°
2026-05-06 13:26 36.69292 3.20559 70 ft 15 kts 91°
2026-05-06 13:26 36.69289 3.20709 70 ft 20 kts 91°
2026-05-06 13:27 36.69284 3.20900 62 ft 23 kts 92°
2026-05-06 13:27 36.69279 3.21097 67 ft 22 kts 91°
2026-05-06 13:27 36.69277 3.21245 64 ft 16 kts 88°
2026-05-06 13:27 36.69327 3.21366 65 ft 16 kts 52°
2026-05-06 13:28 36.69392 3.21472 61 ft 15 kts 52°
2026-05-06 13:28 36.69454 3.21573 65 ft 14 kts 53°
2026-05-06 13:28 36.69509 3.21666 65 ft 8 kts 52°
2026-05-06 13:28 36.69539 3.21707 66 ft 6 kts 42°
2026-05-06 13:29 36.69578 3.21725 69 ft 6 kts 355°
2026-05-06 13:29 36.69597 3.21719 60 ft 1 kts 345°
2026-05-06 13:29 36.69617 3.21712 64 ft 5 kts 345°
2026-05-06 13:29 36.69654 3.21698 63 ft 6 kts 343°
2026-05-06 13:30 36.69683 3.21677 66 ft 3 kts 307°
2026-05-06 13:30 36.69687 3.21660 67 ft 2 kts 275°
2026-05-06 13:30 36.69685 3.21643 69 ft 2 kts 263°
2026-05-06 13:30 36.69683 3.21629 69 ft 2 kts 257°
2026-05-06 13:31 36.69680 3.21617 61 ft 1 kts 254°
2026-05-06 13:31 36.69677 3.21606 67 ft 1 kts 248°
2026-05-06 13:31 36.69672 3.21599 69 ft 1 kts 223°
2026-05-06 13:31 36.69665 3.21595 69 ft 1 kts 200°
2026-05-06 13:32 36.69658 3.21596 69 ft 1 kts 171°
2026-05-06 13:32 36.69653 3.21601 69 ft 1 kts 136°
2026-05-06 13:32 36.69652 3.21607 66 ft 1 kts 101°
2026-05-06 13:32 36.69651 3.21613 67 ft 1 kts 106°
2026-05-06 13:33 36.69649 3.21618 69 ft 1 kts 112°
2026-05-06 13:33 36.69648 3.21622 69 ft 1 kts 113°
2026-05-06 13:33 36.69647 3.21626 69 ft 0 kts 114°
2026-05-06 13:33 36.69647 3.21625 61 ft 0 kts 114°